x

Destruction Island, Wa (desw1) Weather Station

3:00 - Sun 29th May 2016 All times are PDT. -7 hours from GMT.

  • Wind
    9mph, 10mph gusts
  • Luft Temp 52°f
  • Sea Pressure 1018.2mb
  • Destruction Island, Wa
  • Destruction Island, Wa

More Historic Weather Station data

Upgrade to MSW Pro to gain access to the past 30 days of data for over 8000 Wavebouys and Weather Stations around the globe.

Join Pro

Comparision Forecast

View Surf forecast
   
So 05/29 3:00 9 10 mph 1018.2mb 52f
2:00 11 13 mph 1018mb 52f
1:00 10 11 mph 1017.8mb 52f
12:00 7 8 mph 1017.7mb 52f
Sa 05/28 11:00 2
mph
1017.4mb 52f
10:00 6
mph
1017.3mb 53f
9:00 5
mph
1017mb 53f
8:00 6
mph
1016.7mb 53f
7:00 6
mph
1016.4mb 53f
6:00 5
mph
1016.2mb 53f
5:00 13 15 mph 1016.3mb 53f
4:00 24 26 mph 1016.3mb 53f
3:00 26 29 mph 1016.3mb 53f
2:00 25 29 mph 1016.3mb 53f
1:00 26 28 mph 1016.5mb 53f
12:00 30 33 mph 1016.5mb 53f
11:00 26 30 mph 1016.4mb 52f
10:00 26 28 mph 1016.4mb 52f
9:00 24 28 mph 1016.6mb 52f
8:00 18 20 mph 1016.7mb 51f
7:00 21 23 mph 1016.9mb 51f
6:00 18 20 mph 1017.3mb 52f
5:00 18 25 mph 1017.4mb 50f
4:00 22 24 mph 1017.6mb 49f
3:00 22 24 mph 1018.2mb 49f
2:00 21
mph
1019mb 50f
1:00 16 17 mph 1019.9mb 50f
12:00 10 11 mph 1020.4mb 51f
Fr 05/27 11:00 7
mph
1020.7mb 52f
10:00  -  1 mph 1021.2mb 51f
9:00 6 7 mph 1021mb 53f
8:00 7 8 mph 1021.4mb 53f
7:00 8 9 mph 1021.6mb 53f
6:00 7 9 mph 1021.9mb 53f
5:00 5 6 mph 1022.1mb 53f
4:00 7 8 mph 1022.3mb 54f
3:00 6 7 mph 1022.5mb 54f
2:00 3 5 mph 1022.5mb 55f
1:00 14 17 mph 1022.6mb 51f
12:00 11 13 mph 1022.6mb 51f
11:00 8 9 mph 1022.3mb 54f
10:00 7
mph
1022.2mb 52f
9:00 7 8 mph 1022mb 53f
8:00 13 14 mph 1021.7mb 52f
7:00 15 16 mph 1021.6mb 52f
6:00 17 18 mph 1021.3mb 51f
5:00 17 20 mph 1021.2mb 51f
4:00 17 20 mph 1021.3mb 52f
3:00 13 14 mph 1021.8mb 51f
2:00 15 16 mph 1022mb 51f
1:00 15 16 mph 1022.1mb 52f
12:00 16 20 mph 1022.4mb 52f
Do 05/26 11:00 21 23 mph 1022.6mb 52f
10:00 13 14 mph 1022.8mb 52f
9:00 13 14 mph 1022.5mb 52f
8:00 15 16 mph 1022.6mb 53f
7:00 14 16 mph 1022.8mb 53f
6:00 7 8 mph 1023.1mb 54f
5:00 11 14 mph 1023.5mb 53f
4:00 16 17 mph 1023.7mb 53f
3:00 13 14 mph 1023.9mb 53f
2:00 14 16 mph 1024mb 53f
1:00 14 15 mph 1023.8mb 53f
12:00 14 15 mph 1023.7mb 52f
11:00 9 11 mph 1023.6mb 51f
10:00 10
mph
1023.3mb 52f
9:00 11 14 mph 1023.2mb 52f
8:00 15 17 mph 1023.3mb 50f
7:00 16 17 mph 1023.2mb 50f
6:00 17 20 mph 1023.2mb 51f
5:00 16 18 mph 1022.9mb 52f
4:00 13 16 mph 1023mb 53f
3:00 17 20 mph 1023.3mb 53f
2:00 16 20 mph 1023.3mb 53f
1:00 13 15 mph 1023.3mb 53f
12:00 13 15 mph 1023.5mb 53f
Mi 05/25 11:00 10 11 mph 1023.7mb 53f
10:00 11 13 mph 1023.6mb 53f
9:00 3 6 mph 1023.6mb 53f
8:00 11 14 mph 1023.5mb 54f
7:00 10 11 mph 1023.3mb 54f
6:00 11 13 mph 1023.5mb 54f
5:00 14
mph
1023.5mb 54f
4:00 13 14 mph 1023.4mb 54f
3:00 13 14 mph 1023.2mb 54f
2:00 13 14 mph 1023.1mb 54f
1:00 10 13 mph 1022.7mb 54f